Regional Weather Roundup
Issued by NWS

Home | Current Version | Previous Version | Graphics & Text | Print | Product List | Glossary On
Versions: 1 2 3 4 5 6 7 8 9 10 11 12 13 14 15 16 17 18 19 20 21 22 23 24 25 26 27 28 29 30 31 32 33 34 35 36 37 38 39 40 41 42 43 44 45 46 47 48 49 50
000
ASUS45 KTFX 221810
RWRMT
MONTANA REGIONAL WEATHER ROUNDUP
NATIONAL WEATHER SERVICE GREAT FALLS MT
1200 PM MDT FRI MAY 22 2015

NOTE: "FAIR" INDICATES FEW OR NO CLOUDS BELOW 12000 FEET WITH NO
SIGNIFICANT WEATHER AND/OR OBSTRUCTIONS TO VISIBILITY.

MTZ001>007-043-221900-
WEST OF THE DIVIDE

CITY           SKY/WX    TMP DP  RH WIND       PRES   REMARKS
KALISPELL      CLEAR     72  39  30 CALM      29.90F
MISSOULA       SUNNY     67  44  43 VRB3      29.91F
BUTTE          PTSUNNY   56  40  55 E7        29.96F
MULLAN PASS    MOSUNNY   58  38  47 VRB5      29.99F
DEER LODGE       N/A     63  43  48 N3        29.98F
EUREKA           N/A     70  34  26 CALM      29.91F
HAMILTON         N/A     63  46  55 N7        29.91F
LIBBY            N/A     73  41  31 W5        29.88F
RONAN            N/A     69  45  42 W7        29.97S
$$

MTZ008-052>055-221900-
SOUTHWEST MONTANA

CITY           SKY/WX    TMP DP  RH WIND       PRES   REMARKS
BOZEMAN        SUNNY     61  43  51 CALM      29.94F
DILLON         MOSUNNY   58  44  60 NW5       29.94F
W YELLOWSTONE  CLOUDY    54  37  54 SW5       29.98S
THREE FORKS      N/A     63  63 100 N2        29.94F
TWIN BRIDGES     N/A     62  41  46 W2        29.94F
$$

MTZ009-010-012-014-046-048-049-054-221900-
EAST SLOPES AND CENTRAL MONTANA

CITY           SKY/WX    TMP DP  RH WIND       PRES   REMARKS
CUT BANK       SUNNY     64  35  34 VRB5G16   29.98F
GREAT FALLS    SUNNY     66  41  40 NW6       29.95S
MALMSTROM AFB  MOSUNNY   65  43  44 N8        29.95S
HELENA         SUNNY     66  43  43 VRB3      29.93F
CONRAD           N/A     65  42  43 N10       30.00F
$$

MTZ011-013-016-021-045-047-050-051-221900-
NORTH CENTRAL MONTANA

CITY           SKY/WX    TMP DP  RH WIND       PRES   REMARKS
HAVRE          MOSUNNY   69  41  36 SE20      29.97S
LEWISTOWN      MOSUNNY   63  45  51 E10G22    29.97S
N BAR RANCH    FAIR      57  45  62 E7G16     30.01S
CHINOOK          N/A     66  43  42 E13G18    29.99S
FORT BENTON      N/A     64  41  42 E7        29.95F
$$

MTZ017>020-022>027-061-062-221900-
NORTHEAST MONTANA

CITY           SKY/WX    TMP DP  RH WIND       PRES   REMARKS
GLASGOW        SUNNY     72  36  26 E18G31    30.01F
JORDAN           N/A     68  43  40 SE21G33   29.98F
SIDNEY         SUNNY     73  32  21 SE16      30.07F
WOLF POINT     SUNNY     73  33  23 SE15G25   30.04F
MALTA            N/A     70  42  36 E17       29.97F
PLENTYWOOD       N/A     72  30  21 SE15G25   30.09F
POPLAR           N/A     72  25  17 SE21G31   30.05F
$$

MTZ028>42-056>058-221900-
SOUTHCENTRAL AND SOUTHEAST MONTANA

CITY           SKY/WX    TMP DP  RH WIND       PRES   REMARKS
BAKER          PTSUNNY   65  40  39 SE20G32   30.07S
BILLINGS       PTSUNNY   61  45  55 SE6       29.95F
LIVINGSTON     MOSUNNY   60  45  57 VRB5      29.95F
MILES CITY     CLOUDY    68  44  42 SE22      29.99F
BIG TIMBER       N/A     57  45  62 CALM      29.97F
FORSYTH          N/A     66  45  45 SE21G29   29.96S
LAUREL           N/A     60  44  55 NE3       29.95S
ROUNDUP          N/A     62  44  51 NE7       29.89S
$$

REGIONAL REPORTS...DAKOTAS

CITY           SKY/WX    TMP DP  RH WIND       PRES   REMARKS
WILLISTON      MOSUNNY   73  32  22 SE12G24   30.09F
MINOT          SUNNY     74  33  22 S9        30.12F
DICKINSON      SUNNY     70  31  23 SE22G33   30.09F
BEACH          FAIR      68  36  30 SE23G31   30.09S
CROSBY         FAIR      73  32  21 S5        30.11F
WATFORD CITY   FAIR      72  32  23 S17G25    30.09F
BISMARCK       SUNNY     73  37  27 SE9       30.15F
GRAND FORKS    SUNNY     73  37  27 S5        30.16S
FARGO          SUNNY     71  37  28 S6        30.19S
BUFFALO SD       N/A     64  40  41 SE25G32   30.01F
RAPID CITY     CLOUDY    58  45  62 S16G22    30.09F
$$

REGIONAL REPORTS...WYOMING/IDAHO/WASHINGTON

CITY           SKY/WX    TMP DP  RH WIND       PRES   REMARKS
GILLETTE       CLOUDY    57  42  57 S23G31    30.02S
SHERIDAN       PTSUNNY   63  47  55 SE18G24   29.95F
BUFFALO WY       N/A     55  45  68 SE15      30.00S
CODY           MOSUNNY   57  45  62 NE3       29.96F
YELLOWSTONE LA   N/A     48  36  63 E6        30.04F
IDAHO FALLS    PTSUNNY   62  43  49 N7        29.91F
SALMON         PTSUNNY   61  45  55 SW3       29.89F
BOISE          PTSUNNY   66  50  56 CALM      29.89F
SPOKANE        PTSUNNY   74  51  44 CALM      29.87F
$$

REGIONAL REPORTS...ALBERTA

CITY           SKY/WX    TMP DP  RH WIND       PRES   REMARKS
EDMONTON       MOSUNNY   73  30  20 E7        29.99S
CALGARY        MOSUNNY   66  30  26 S6        30.01S
LETHBRIDGE     MOSUNNY   68  39  34 E10       29.97F
MEDICINE HAT   MOSUNNY   72  25  17 VRB8      29.97F
$$

REGIONAL REPORTS...SASKATCHEWAN

CITY           SKY/WX    TMP DP  RH WIND       PRES   REMARKS
SWIFT CURRENT  SUNNY     70  30  23 SE22G31   30.06F
REGINA         MOSUNNY   73  27  17 VRB2      30.09F
SASKATOON      SUNNY     77  30  18 SW13G18   30.07F
$$



USA.gov is the U.S. government's official web portal to all federal, state and local government web resources and services.